STARLINK-1008, 44714

Orbit data source: Space-Track

STARLINK-1008, 44714 is a payload satellite owned by SpaceX/Seattle (US) in LEO that was launched on Mon, 11 Nov 2019 UTC via an FALCON 9 launch vehicle from the Air Force Eastern Test Range (AFETR). Payload-class satellites include a variety of spacecraft equipped with specific instruments for various scientific and technological missions. These include communications satellites like Starlink; space stations such as the ISS; scientific satellites like the Hubble; Earth observation satellites from companies like Planet Labs, Umbra, and HawkEye 360; GPS; miniature CubeSats for education and research; and military/defense satellites.

Loading next visibility...
Identifier
44714, 2019-074B
Orbit
LEO
Country
Flag of USUS
Related business
Manufacturer
SpaceX/Seattle
Mission
Operational Commercial Communications
Bus & Motor
STARLINK, Unknown motor
Mass
260 kg wet, ~248 kg dry
Launch date (UTC)
2019-11-11 (6 years ago)
Launch vehicle
FALCON 9
Launch site
Air Force Eastern Test Range (AFETR)
Object type
Payload
Rocket body
Debris
Shape & HBR
Box + 1 Pan, 10.1 m
Radar Cross Section
13.562 m², Large (>1 m²)

Expand to show TLE details & history
Last TLE update: 17 hours ago

TLE from 17 hours ago
0 STARLINK-1008
1 44714U 19074B   25346.92319929 -.00001604  00000-0 -88829-4 0  9997
2 44714  53.0553 216.1266 0001323  84.9551 275.1589 15.06398210335674
Epoch: 2025-12-12T22:09Z
TLE epoch observation values (Epoch: 2025-12-12T22:09:24.418Z)
Latitude
-0.00003°
Longitude
161.91698°
Altitude
548.014 km
Speed
7.589 km/s
True Right ascension
14h 24m 30s
True Declination
0° 00' 00"
Sunlit
Object was in daylight at epoch
Visualization orbit readout
Latitude
Unknown
Longitude
Unknown
Altitude
Unknown
Speed
Unknown
Apparent Right ascension
Unknown
Apparent Declination
Unknown
Sunlit
N/A
Visualization observer readout
Local Sidereal Time
14:09:06
Azimuth
Unknown
Elevation
Unknown
Doppler factor
Unknown
Orbital elements
Apogee altitude
548.404 km
Perigee altitude
546.571 km
Semi-major axis
6,925.625 km
Eccentricity
0.00013
Inclination
53.0553°
RAAN
216.1266°
Arg. of periapsis
84.9551°
True anomaly
275.1438°
Mean anomaly
275.1589°
Eccentric anomaly
275.15135°
Mean motion
3.76578 °/min
Orbital period
95.6 mins
BSTAR
-0.000088829
Loading maneuver chart data...
Computing Atmospheric mass density...
Loading historical data...
Loading historical data...
Loading historical data...
Loading historical data...
Loading historical data...
Loading historical data...
Loading historical data...

Documentation

Showing up to 5 results
|